Flag for Austria Weather past 2 weeks in Schwechat, Lower Austria, Austria

Now
59 °F

Broken clouds.


Feels Like: 58 °F
Forecast: 56 / 67 °F
Wind: 7 mph from Northeast

Location: Vienna Schwechat-Flughafen Airport

Current Time: Sep 30, 2014 at 2:02:56 PM

Latest Report: Sep 30, 2014 at 1:20 PM


Visibility: 4 mi

Pressure: 30.30 "Hg

Humidity: 88%

Dew point: 55 °F

Location of SchwechatLocation

Historic Weather in Schwechat — Graph

°F

Schwechat temperature yesterday

Maximum temperature yesterday: 70 °F (at 3:20 PM)
Minimum temperature yesterday: 50 °F (at 5:50 AM)
Average temperature yesterday: 59 °F

Past Weeks' High & Low Weather Summary

 TemperatureHumidityPressure
High77 °F (Sep 20, 3:20 PM)100% (Sep 15, 9:50 PM)30.42 "Hg (Sep 15, 9:50 PM)
Low39 °F (Sep 24, 4:50 AM)50% (Sep 21, 3:20 PM)29.80 "Hg (Sep 22, 1:50 AM)
Average59 °F81%30.10 "Hg
* Reported Sep 15 12:20 PM — Sep 30 12:50 PM, Schwechat, Weather by CustomWeather, © 2014

Note: Actual official high and low records may vary slightly from our data, if they occured in-between our weather recording intervals... More about our weather records

Advertising

Schwechat weather history for previous 24 hours

 ConditionsComfort  
Time TempWeatherWind HumidityBarometerVisibility
12:50 PM
Sep 30
57 °FBroken clouds.8 mph94%30.30 "Hg4 mi
12:20 PM57 °FBroken clouds.5 mph94%30.30 "Hg4 mi
11:50 AM55 °FFog.3 mph100%30.30 "Hg3 mi
11:20 AM55 °FFog.3 mph100%30.30 "Hg3 mi
10:50 AM55 °FFog.3 mph94%30.33 "Hg2 mi
10:20 AM55 °FFog.3 mph94%30.33 "Hg2 mi
9:50 AM54 °FFog.5 mph100%30.33 "Hg2 mi
9:20 AM54 °FFog.3 mph100%30.33 "Hg2 mi
8:50 AM54 °FSleet. Cloudy.3 mph100%30.30 "Hg1 mi
8:20 AM54 °FSleet. Cloudy.5 mph100%30.30 "Hg1 mi
7:50 AM54 °FFog.3 mph94%30.30 "Hg1 mi
7:20 AM52 °FFog.3 mph100%30.30 "Hg1 mi
6:50 AM52 °FFog.3 mph100%30.30 "Hg2 mi
6:20 AM52 °FFog.3 mph100%30.30 "Hg2 mi
5:50 AM52 °FFog.3 mph100%30.30 "Hg2 mi
5:20 AM52 °FCool.2 mph100%30.30 "Hg2 mi
4:50 AM52 °FPassing clouds.3 mph100%30.30 "Hg1 mi
4:20 AM52 °FPassing clouds.3 mph100%30.30 "Hg0 mi
3:50 AM52 °FFog.6 mph100%30.30 "Hg1 mi
3:20 AM52 °FFog.7 mph100%30.30 "Hg1 mi
2:50 AM50 °FFog.5 mph100%30.27 "Hg2 mi
2:20 AM50 °FFog.5 mph100%30.27 "Hg2 mi
1:50 AM50 °FFog.3 mph100%30.27 "Hg3 mi
1:20 AM50 °FFog.5 mph100%30.27 "Hg3 mi
12:50 AM52 °FFog.6 mph94%30.27 "Hg3 mi
12:20 AM52 °FSleet. Overcast.5 mph94%30.27 "Hg3 mi
11:50 PM
Sep 29
52 °FSleet. Fog.5 mph100%30.27 "Hg4 mi
11:20 PM52 °FPassing clouds.7 mph100%30.27 "Hg4 mi
10:50 PM54 °FPassing clouds.6 mph94%30.27 "Hg6 mi
10:20 PM54 °FClear.7 mph94%30.27 "Hg10 mi
9:50 PM57 °FClear.2 mph94%30.27 "Hg10 mi
9:20 PM61 °FClear.6 mph83%30.27 "Hg10 mi
8:50 PM61 °FClear.5 mph83%30.27 "Hg10 mi
8:20 PM63 °FClear.3 mph77%30.27 "Hg10 mi
7:50 PM63 °FClear.3 mph77%30.27 "Hg10 mi
7:20 PM63 °FSunny.3 mph77%30.27 "Hg10 mi
6:50 PM64 °FSunny.6 mph73%30.27 "Hg10 mi
6:20 PM66 °FSunny.7 mph68%30.27 "Hg10 mi
5:50 PM68 °FSunny.9 mph64%30.27 "Hg10 mi
5:20 PM68 °FScattered clouds.9 mph64%30.27 "HgN/A
4:50 PM70 °FScattered clouds.9 mph60%30.27 "HgN/A
4:20 PM70 °FScattered clouds.7 mph60%30.30 "HgN/A
3:50 PM70 °FScattered clouds.6 mph64%30.30 "HgN/A
3:20 PM70 °FScattered clouds.6 mph60%30.30 "HgN/A
2:50 PM68 °FScattered clouds.6 mph64%30.30 "HgN/A
2:20 PM68 °FScattered clouds.5 mph64%30.33 "HgN/A
Weather by CustomWeather, © 2014

See weather overviewHow to use our weather pages